When you browse on this site, cookies collect data to enhance your experience and personalize the content and advertising you see.
Visit our Privacy Policy to learn more. By continuing to use the site, you agree to this use of cookies and data.
  • In Hungary
  • List of Countries
  • For 7 days
  • Water Temperature
  • Satellite Maps
  • Weather Map
  • News
  • Weather Widgets
  • user-avatar
    Login

    Hourly Weather Zelkow

    Today, 25 May, Saturday

    Time Temperature Precipitation Wind Pressure Humidity
    00:00 +10°C° 0 mm 1 mps 723 mmHg 91%
    01:00 +10°C° 0 mm 1 mps 723 mmHg 91%
    02:00 +9°C° 0 mm 2 mps 723 mmHg 91%
    03:00 +9°C° 0 mm 2 mps 723 mmHg 91%
    04:00 +8°C° 0 mm 2 mps 723 mmHg 91%
    05:00 +10°C° 0 mm 2 mps 723 mmHg 86%
    06:00 +12°C° 0 mm 2 mps 724 mmHg 81%
    07:00 +14°C° 0 mm 2 mps 724 mmHg 73%
    08:00 +16°C° 0 mm 3 mps 724 mmHg 67%
    09:00 +17°C° 0 mm 3 mps 724 mmHg 60%
    10:00 +19°C° 0 mm 3 mps 724 mmHg 53%
    11:00 +19°C° 0 mm 3 mps 724 mmHg 53%
    12:00 +20°C° 0 mm 2 mps 724 mmHg 53%
    13:00 +20°C° 0 mm 2 mps 724 mmHg 53%
    14:00 +20°C° 0.1 mm 3 mps 724 mmHg 56%
    15:00 +20°C° 0.1 mm 3 mps 724 mmHg 58%
    16:00 +20°C° 0.1 mm 3 mps 724 mmHg 60%
    17:00 +19°C° 0.1 mm 2 mps 724 mmHg 66%
    18:00 +17°C° 0.1 mm 2 mps 724 mmHg 71%
    19:00 +16°C° 0.1 mm 1 mps 724 mmHg 76%
    20:00 +15°C° 0 mm 1 mps 724 mmHg 79%
    21:00 +14°C° 0 mm 1 mps 724 mmHg 82%
    22:00 +13°C° 0 mm 1 mps 724 mmHg 86%
    23:00 +12°C° 0 mm 1 mps 725 mmHg 87%

    Tomorrow, 26 May, Sunday

    Time Temperature Precipitation Wind Pressure Humidity
    00:00 +12°C° 0 mm 1 mps 725 mmHg 88%
    01:00 +12°C° 0 mm 1 mps 725 mmHg 89%
    02:00 +11°C° 0 mm 1 mps 725 mmHg 89%
    03:00 +11°C° 0 mm 1 mps 725 mmHg 90%
    04:00 +11°C° 0 mm 1 mps 725 mmHg 90%
    05:00 +13°C° 0 mm 1 mps 725 mmHg 86%
    06:00 +14°C° 0 mm 2 mps 725 mmHg 82%
    07:00 +16°C° 0 mm 2 mps 725 mmHg 78%
    08:00 +17°C° 0 mm 2 mps 725 mmHg 74%
    09:00 +18°C° 0 mm 3 mps 725 mmHg 70%
    10:00 +20°C° 0 mm 3 mps 725 mmHg 66%
    11:00 +20°C° 0.1 mm 3 mps 725 mmHg 63%
    12:00 +21°C° 0.1 mm 3 mps 725 mmHg 60%
    13:00 +22°C° 0.1 mm 4 mps 725 mmHg 56%
    14:00 +22°C° 0.2 mm 4 mps 725 mmHg 59%
    15:00 +21°C° 0.2 mm 3 mps 725 mmHg 61%
    16:00 +21°C° 0.2 mm 3 mps 724 mmHg 63%
    17:00 +20°C° 0.3 mm 3 mps 724 mmHg 69%
    18:00 +19°C° 0.3 mm 2 mps 724 mmHg 75%
    19:00 +17°C° 0.3 mm 2 mps 724 mmHg 80%
    20:00 +16°C° 0 mm 2 mps 724 mmHg 83%
    21:00 +15°C° 0 mm 2 mps 724 mmHg 87%
    22:00 +14°C° 0 mm 2 mps 724 mmHg 90%
    23:00 +14°C° 0 mm 2 mps 724 mmHg 90%

    Day after tomorrow, 27 May, Monday

    Time Temperature Precipitation Wind Pressure Humidity
    00:00 +14°C° 0 mm 2 mps 724 mmHg 91%
    01:00 +13°C° 0 mm 2 mps 724 mmHg 91%
    02:00 +13°C° 0 mm 2 mps 724 mmHg 91%
    03:00 +13°C° 0 mm 2 mps 723 mmHg 91%
    04:00 +13°C° 0 mm 2 mps 723 mmHg 91%
    05:00 +14°C° 0.1 mm 2 mps 723 mmHg 87%
    06:00 +16°C° 0.1 mm 2 mps 723 mmHg 83%
    07:00 +18°C° 0.1 mm 2 mps 724 mmHg 80%
    08:00 +19°C° 0.6 mm 3 mps 724 mmHg 76%
    09:00 +21°C° 0.6 mm 4 mps 724 mmHg 72%
    10:00 +22°C° 0.6 mm 4 mps 724 mmHg 68%
    11:00 +22°C° 0.3 mm 4 mps 724 mmHg 65%
    12:00 +23°C° 0.3 mm 4 mps 724 mmHg 63%
    13:00 +23°C° 0.3 mm 4 mps 723 mmHg 60%
    14:00 +23°C° 0.1 mm 4 mps 723 mmHg 60%
    15:00 +25°C° 0.1 mm 3 mps 723 mmHg 59%
    16:00 +25°C° 0.1 mm 3 mps 722 mmHg 59%
    17:00 +23°C° 0.1 mm 2 mps 722 mmHg 64%
    18:00 +21°C° 0.1 mm 2 mps 722 mmHg 70%
    19:00 +20°C° 0.1 mm 1 mps 722 mmHg 75%
    20:00 +20°C° 0.1 mm 1 mps 722 mmHg 78%
    21:00 +19°C° 0.1 mm 1 mps 722 mmHg 80%
    22:00 +16°C° 0.1 mm 0 mps 722 mmHg 83%
    23:00 +18°C° 0.7 mm 1 mps 721 mmHg 86%

    28 May, Tuesday

    Time Temperature Precipitation Wind Pressure Humidity
    00:00 +18°C° 0.7 mm 1 mps 721 mmHg 89%
    01:00 +16°C° 0.7 mm 1 mps 720 mmHg 92%
    02:00 +16°C° 0.6 mm 1 mps 720 mmHg 93%
    03:00 +16°C° 0.6 mm 2 mps 719 mmHg 94%
    04:00 +15°C° 0.6 mm 2 mps 719 mmHg 95%
    05:00 +17°C° 0 mm 2 mps 719 mmHg 91%
    06:00 +18°C° 0 mm 2 mps 719 mmHg 87%
    07:00 +19°C° 0 mm 3 mps 719 mmHg 83%
    08:00 +20°C° 0 mm 3 mps 719 mmHg 74%
    09:00 +22°C° 0 mm 4 mps 719 mmHg 65%
    10:00 +23°C° 0 mm 4 mps 719 mmHg 56%
    11:00 +24°C° 0 mm 3 mps 718 mmHg 57%
    12:00 +24°C° 0 mm 3 mps 718 mmHg 58%
    13:00 +24°C° 0 mm 2 mps 718 mmHg 59%
    14:00 +24°C° 0.3 mm 2 mps 717 mmHg 61%
    15:00 +24°C° 0.3 mm 2 mps 717 mmHg 62%
    16:00 +24°C° 0.3 mm 2 mps 717 mmHg 64%
    17:00 +21°C° 1.7 mm 2 mps 717 mmHg 70%
    18:00 +19°C° 1.7 mm 3 mps 717 mmHg 77%
    19:00 +18°C° 1.7 mm 3 mps 717 mmHg 84%
    20:00 +16°C° 0.4 mm 3 mps 717 mmHg 87%
    21:00 +14°C° 0.4 mm 4 mps 717 mmHg 91%
    22:00 +13°C° 0.4 mm 4 mps 717 mmHg 95%
    23:00 +12°C° 0 mm 4 mps 718 mmHg 94%

    29 May, Wednesday

    Time Temperature Precipitation Wind Pressure Humidity
    00:00 +11°C° 0 mm 4 mps 718 mmHg 94%
    01:00 +10°C° 0 mm 4 mps 718 mmHg 93%
    02:00 +10°C° 0 mm 3 mps 718 mmHg 93%
    03:00 +10°C° 0 mm 3 mps 719 mmHg 93%
    04:00 +10°C° 0 mm 3 mps 719 mmHg 93%
    05:00 +10°C° 0 mm 3 mps 719 mmHg 92%
    06:00 +10°C° 0 mm 3 mps 720 mmHg 91%
    07:00 +10°C° 0 mm 3 mps 720 mmHg 90%
    08:00 +11°C° 0.1 mm 3 mps 720 mmHg 86%
    09:00 +12°C° 0.1 mm 3 mps 721 mmHg 83%
    10:00 +14°C° 0.1 mm 2 mps 721 mmHg 79%
    11:00 +13°C° 0.6 mm 2 mps 721 mmHg 82%
    12:00 +13°C° 0.6 mm 2 mps 721 mmHg 84%
    13:00 +13°C° 0.6 mm 2 mps 721 mmHg 87%
    14:00 +11°C° 0.8 mm 3 mps 722 mmHg 89%
    15:00 +11°C° 0.8 mm 3 mps 722 mmHg 91%
    16:00 +10°C° 0.8 mm 3 mps 722 mmHg 92%
    17:00 +10°C° 0.7 mm 3 mps 722 mmHg 93%
    18:00 +10°C° 0.7 mm 3 mps 722 mmHg 94%
    19:00 +10°C° 0.7 mm 3 mps 723 mmHg 95%
    20:00 +10°C° 0.8 mm 3 mps 723 mmHg 95%
    21:00 +10°C° 0.8 mm 3 mps 724 mmHg 95%
    22:00 +9°C° 0.8 mm 3 mps 724 mmHg 95%
    23:00 +9°C° 0.4 mm 3 mps 724 mmHg 95%

    30 May, Thursday

    Time Temperature Precipitation Wind Pressure Humidity
    00:00 +9°C° 0.4 mm 3 mps 725 mmHg 96%
    01:00 +9°C° 0.4 mm 3 mps 725 mmHg 96%
    02:00 +9°C° 0.5 mm 3 mps 725 mmHg 96%
    03:00 +10°C° 0.5 mm 3 mps 726 mmHg 96%
    04:00 +10°C° 0.5 mm 3 mps 726 mmHg 96%
    05:00 +10°C° 0.3 mm 4 mps 727 mmHg 95%
    06:00 +9°C° 0.3 mm 5 mps 727 mmHg 93%
    07:00 +9°C° 0.3 mm 6 mps 728 mmHg 92%
    08:00 +9°C° 0 mm 5 mps 728 mmHg 86%
    09:00 +10°C° 0 mm 5 mps 729 mmHg 80%
    10:00 +12°C° 0 mm 5 mps 730 mmHg 74%
    11:00 +13°C° 0 mm 4 mps 730 mmHg 67%
    12:00 +14°C° 0 mm 4 mps 730 mmHg 60%
    13:00 +17°C° 0 mm 3 mps 730 mmHg 53%
    14:00 +17°C° 0 mm 3 mps 730 mmHg 52%
    15:00 +17°C° 0 mm 3 mps 730 mmHg 52%
    16:00 +17°C° 0 mm 2 mps 730 mmHg 52%
    17:00 +16°C° 0 mm 2 mps 730 mmHg 57%
    18:00 +14°C° 0 mm 1 mps 730 mmHg 63%
    19:00 +13°C° 0 mm 1 mps 730 mmHg 68%
    20:00 +12°C° 0 mm 1 mps 731 mmHg 71%
    21:00 +10°C° 0 mm 1 mps 731 mmHg 74%
    22:00 +9°C° 0 mm 1 mps 731 mmHg 77%
    23:00 +9°C° 0 mm 1 mps 731 mmHg 78%
    Show more